Date,TemperatureHighF,TemperatureAvgF,TemperatureLowF,DewpointHighF,DewpointAvgF,DewpointLowF,HumidityHigh,HumidityAvg,HumidityLow,PressureMaxIn,PressureMinIn,WindSpeedMaxMPH,WindSpeedAvgMPH,GustSpeedMaxMPH,PrecipitationSumIn
2013-2-1,26.6,13.3,-3.5,13.4,-0.2,-15.3,60,54,47,30.39,30.00,12,5,21,0.00
2013-2-2,37.6,29.7,24.4,28.9,18.9,10.8,83,64,50,30.15,29.97,12,3,20,0.00
2013-2-3,41.7,33.1,19.4,23.6,16.7,7.0,68,51,39,30.21,29.74,13,5,20,0.00
2013-2-4,37.2,27.3,22.3,24.8,18.4,13.2,87,70,54,30.00,29.74,8,3,14,0.00
2013-2-5,52.0,37.9,25.3,25.9,21.6,15.4,92,56,29,30.00,29.74,9,3,14,0.00
2013-2-6,54.7,40.7,29.7,31.5,25.8,17.7,74,56,38,30.03,29.80,11,3,17,0.00
2013-2-7,39.7,33.4,28.8,32.1,24.9,17.0,84,71,61,30.21,29.85,8,4,13,0.00
2013-2-8,32.7,28.2,24.8,24.1,20.9,16.8,85,74,60,30.30,30.09,9,4,14,0.00
2013-2-9,48.9,37.5,28.0,30.4,28.0,24.1,92,71,47,30.12,29.62,12,8,18,0.00
2013-2-10,44.8,36.7,29.8,43.0,29.4,15.6,98,76,52,29.77,29.24,16,8,24,0.20
2013-2-11,36.3,29.8,22.5,20.6,15.5,13.2,81,55,42,30.12,29.74,14,5,21,0.00
2013-2-12,49.6,32.8,19.8,19.2,16.2,10.2,87,55,27,30.15,29.85,13,3,15,0.00
2013-2-13,54.9,38.2,24.3,24.4,20.1,14.9,81,52,27,29.88,29.68,11,4,15,0.00
2013-2-14,45.1,36.4,21.2,31.5,20.8,7.7,93,55,31,30.24,29.74,12,4,19,0.00
2013-2-15,33.1,22.8,13.5,22.0,11.5,4.1,92,64,36,30.33,30.21,6,2,10,0.00
2013-2-16,34.0,22.7,8.4,20.3,13.8,3.8,88,69,52,30.33,29.97,7,3,11,0.04
2013-2-17,27.1,23.4,23.0,17.5,16.4,15.9,75,74,66,30.00,29.91,4,3,6,0.00
2013-2-18,49.3,27.6,21.2,29.3,15.8,7.9,87,62,41,30.06,29.53,13,5,20,0.04
2013-2-19,27.9,16.6,8.6,9.7,-2.8,-10.2,58,43,26,30.33,30.03,11,5,18,0.00
2013-2-20,24.3,15.5,5.0,0.5,-5.6,-14.1,45,38,34,30.36,30.15,8,4,12,0.00
2013-2-21,25.0,21.7,20.5,19.9,10.2,-0.3,91,64,38,30.21,29.83,9,4,14,0.00
2013-2-22,23.9,18.3,9.5,18.9,12.2,1.4,89,77,58,30.00,29.80,8,3,13,0.00
2013-2-23,36.9,21.0,6.1,20.8,10.9,-1.9,83,65,49,29.97,29.77,7,3,12,0.09
2013-2-24,45.9,30.9,20.5,24.3,19.4,13.8,80,64,36,30.00,29.85,4,2,6,0.04
2013-2-25,36.3,29.4,25.5,25.1,22.2,19.3,91,75,54,30.06,29.85,6,3,11,0.00
2013-2-26,32.2,27.8,24.4,25.6,24.1,21.0,98,86,73,29.88,29.74,8,4,13,0.00
2013-2-27,37.8,30.0,23.5,22.3,18.0,12.9,83,63,41,30.06,29.85,10,5,19,0.00
2013-2-28,33.6,27.3,24.6,20.2,17.4,14.1,74,66,50,30.21,30.06,10,4,14,0.00